Location: Napa Soda Springs
(38.3907°N, 122.2794°W)
Time: 21:04:33
(UTC+00:00)

Cosmos 2369 - Pass Details

Date: 29 October 2020
Orbit: 840 x 855 km, 71.0° (Epoch: 24 November)

Event Time Altitude Azimuth Distance (km) Brightness Sun altitude
Exits shadow 12:08:20 23° 356° (N) 1,708 5.2 -28.8°
Maximum altitude 12:11:41 53° 64° (ENE) 1,024 4.3 -28.2°
Drops below altitude 10° 12:17:10 10° 141° (SE) 2,450 6.5 -27.1°
Sets 12:19:39 0° 146° (SE) 3,380 7.2 -26.6°
